Regional Weather Roundup
Issued by NWS

Home | Current Version | Previous Version | Graphics & Text | Print | Product List | Glossary On
Versions: 1 2 3 4 5 6 7 8 9 10 11 12 13 14 15 16 17 18 19 20 21 22 23 24 25 26 27 28 29 30 31 32 33 34 35 36 37 38 39 40 41 42 43 44 45 46 47 48 49 50
000
ASUS43 KDTX 061210
RWRMI
MICHIGAN HOURLY REGIONAL WEATHER ROUNDUP
NATIONAL WEATHER SERVICE DETROIT/PONTIAC MI
800 AM EDT WED MAY 06 2015

NOTE: "FAIR" INDICATES FEW OR NO CLOUDS BELOW 12,000 FEET WITH NO
SIGNIFICANT WEATHER AND/OR OBSTRUCTION TO VISIBILITY.

MIZ047>049-052>055-059>063-066>070-074>076-081>083-061300-
SOUTHEAST LOWER MICHIGAN

CITY           SKY/WX    TMP DP  RH WIND       PRES   REMARKS
ADRIAN         FOG       51  50  97 E9        30.26R VSB<1/4
6HR MIN TEMP:  51; 6HR MAX TEMP:  52;

ALMA           CLOUDY    52  48  88 CALM      30.26S
ANN ARBOR      CLOUDY    52  50  93 E5        30.26R FOG
BAD AXE        CLOUDY    44  40  86 CALM      30.29R
CARO           CLOUDY    47  45  91 CALM      30.27S
DETROIT CITY   CLOUDY    52  47  83 NE5       30.27R
6HR MIN TEMP:  50; 6HR MAX TEMP:  52; 6HR PCP:  0.01;

DETROIT        CLOUDY    53  50  89 NE5       30.27R FOG
6HR MIN TEMP:  52; 6HR MAX TEMP:  53;

FLINT          CLOUDY    53  46  77 E5        30.27R
6HR MIN TEMP:  51; 6HR MAX TEMP:  53; 6HR PCP: TRACE;

GROSSE ILE     CLOUDY    52  50  93 NE5       30.25R FOG
HILLSDALE      FOG       53  53 100 E6        30.24R VSB<1/4
6HR MIN TEMP:  52; 6HR MAX TEMP:  53;

HOWELL         CLOUDY    52  51  97 E5        30.25S FOG
6HR MIN TEMP:  50; 6HR MAX TEMP:  52;


CITY           SKY/WX    TMP DP  RH WIND       PRES   REMARKS
JACKSON        CLOUDY    52  51  97 E8        30.25R FOG
6HR MIN TEMP:  51; 6HR MAX TEMP:  52;

LAMBERTVILLE   FOG       52  50  93 CALM      30.25S VSB 1/2
LANSING        CLOUDY    53  50  89 E8        30.25S FOG
6HR MIN TEMP:  52; 6HR MAX TEMP:  53;

LAPEER         CLOUDY    48  45  87 CALM      30.27S
MASON          FOG       51  50  95 SE5       30.25R VSB 1
MONROE         CLOUDY    52  52 100 E3        30.24S FOG
MT. CLEMENS    CLOUDY    52  46  82 NE2       30.24S
6HR MIN TEMP:  49; 6HR MAX TEMP:  51;

PONTIAC        CLOUDY    52  45  77 E3        30.26R
6HR MIN TEMP:  50; 6HR MAX TEMP:  52;

PORT HOPE        N/A     45  40  82 E3        30.27S
6HR MIN TEMP:  37; 6HR MAX TEMP:  45;

PORT HURON     CLOUDY    46  45  93 NE3       30.28R
TRI CITIES     CLOUDY    52  47  83 E7        30.27S
6HR MIN TEMP:  47; 6HR MAX TEMP:  52;

MIDLAND        CLOUDY    50  48  92 E3        30.26S
TROY           CLOUDY    52  47  82 NE5       30.28S
SAGINAW HB     PTSUNNY   50  50 100 E3        30.27R
$$
MIZ043>046-050>051-056>058-064>065-071>073-077>080-061300-
SOUTHWEST LOWER MICHIGAN

CITY           SKY/WX    TMP DP  RH WIND       PRES   REMARKS
BATTLE CREEK   FOG       53  52  96 SE7       30.23S VSB 1/2
6HR MIN TEMP:  51; 6HR MAX TEMP:  53;

BENTON HARBOR  CLOUDY    53  53 100 SE10      30.20R FOG
6HR MIN TEMP:  52; 6HR MAX TEMP:  53;

BIG RAPIDS     CLOUDY    51  46  84 E3        30.25R
6HR MIN TEMP:  50; 6HR MAX TEMP:  51;

COLDWATER      FOG       52  52  99 E6        30.23R VSB 1/4
6HR MIN TEMP:  51; 6HR MAX TEMP:  52;

FREMONT        CLOUDY    52  50  90 E5        30.22R
HOLLAND        FOG       53  52  96 SE8       30.22R VSB 3/4
6HR MIN TEMP:  53; 6HR MAX TEMP:  53;

GRAND RAPIDS   CLOUDY    53  51  93 SE8       30.23R FOG
6HR MIN TEMP:  53; 6HR MAX TEMP:  53;

IONIA          CLOUDY    53  50  91 E6        30.23S FOG
KALAMAZOO      FOG       53  51  93 E7        30.23S VSB 1/4
6HR MIN TEMP:  51; 6HR MAX TEMP:  53;

LUDINGTON      CLOUDY    56  48  74 E5        30.22S
MARSHALL       FOG       51  51  99 SE6       30.23S VSB 1/4
MOUNT PLEASANT CLOUDY    48  46  93 CALM      30.26R
6HR MIN TEMP:  47; 6HR MAX TEMP:  49;

MUSKEGON       CLOUDY    54  51  90 E9        30.22R FOG
6HR MIN TEMP:  53; 6HR MAX TEMP:  55; 6HR PCP: TRACE;

SOUTH HAVEN    FOG       53  52  95 SE7       30.21R VSB 1/2
$$
MIZ016>042-061300-
NORTHERN LOWER MICHIGAN

CITY           SKY/WX    TMP DP  RH WIND       PRES   REMARKS
ALPENA         MOSUNNY   42  40  92 S3        30.29S
6HR MIN TEMP:  31; 6HR MAX TEMP:  42;

BEAVER ISLAND  PTSUNNY   55  37  51 CALM      30.25S
6HR MIN TEMP:  38; 6HR MAX TEMP:  55;

BELLAIRE       PTSUNNY   42  38  88 CALM      30.26R
6HR MIN TEMP:  37; 6HR MAX TEMP:  42;

CADILLAC       CLOUDY    50  43  75 SE6       30.24S
CHARLEVOIX     PTSUNNY   49  39  68 E3        30.28R
6HR MIN TEMP:  43; 6HR MAX TEMP:  49;

FRANKFORT      CLOUDY    50  40  66 CALM      30.23F
GAYLORD        PTSUNNY   47  43  86 SE5       30.26S
6HR MIN TEMP:  37; 6HR MAX TEMP:  47;

GRAYLING       PTSUNNY   39  36  89 CALM      30.27S
6HR MIN TEMP:  32; 6HR MAX TEMP:  39;

HARBOR SPRINGS PTSUNNY   50  41  71 CALM      30.26R
HOUGHTON LAKE  CLOUDY    46  43  89 E3        30.27R
6HR MIN TEMP:  38; 6HR MAX TEMP:  46;

MANISTEE       CLOUDY    52  39  62 E7        30.24S
OSCODA         FOG       40  40 100 CALM      30.29R VSB 1/4
PELLSTON       PTSUNNY   45  38  76 CALM      30.27R
6HR MIN TEMP:  30; 6HR MAX TEMP:  45;

ROGERS CITY    MOSUNNY   48  43  82 SE3       30.29R
TRAVERSE CITY  PTSUNNY   46  37  71 CALM      30.25R
6HR MIN TEMP:  39; 6HR MAX TEMP:  46;

$$
MIZ007>008-015-061300-
EASTERN UPPER MICHIGAN

CITY           SKY/WX    TMP DP  RH WIND       PRES   REMARKS
KINROSS        SUNNY     46  43  87 CALM      30.28S
6HR MIN TEMP:  37; 6HR MAX TEMP:  46;

MACKINAC ISLAN MOSUNNY   46  38  76 CALM      30.27R
6HR MIN TEMP:  42; 6HR MAX TEMP:  52;

NEWBERRY       MOSUNNY   46  35  66 CALM      30.26R
S. S. MARIE    SUNNY     44  33  65 E6        30.28R
6HR MIN TEMP:  40; 6HR MAX TEMP:  45;

MUNISING         N/A     51  32  48 S8        30.23R
6HR MIN TEMP:  38; 6HR MAX TEMP:  51;

$$
MIZ004>006-011>014-085-061300-
CENTRAL UPPER MICHIGAN

CITY           SKY/WX    TMP DP  RH WIND       PRES   REMARKS
MANISTIQUE     PTSUNNY   51  36  57 SE7       30.25R
ESCANABA       PTSUNNY   41  37  87 CALM      30.24R
6HR MIN TEMP:  36; 6HR MAX TEMP:  41;

MENOMINEE      CLOUDY    48  39  71 NE6       30.22F
6HR MIN TEMP:  46; 6HR MAX TEMP:  48;

SAWYER-GWINN   SUNNY     39  32  75 CALM      30.22S
$$
MIZ001>003-009>011-084-061300-
WESTERN UPPER MICHIGAN

CITY           SKY/WX    TMP DP  RH WIND       PRES   REMARKS
IRON MOUNTAIN  CLOUDY    45  37  73 CALM      30.22R
6HR MIN TEMP:  38; 6HR MAX TEMP:  45;

HOUGHTON       MOSUNNY   49  31  49 E3        30.20R
6HR MIN TEMP:  38; 6HR MAX TEMP:  50;

COPPER HARBOR    N/A     50  35  56 S3        30.21R
6HR MIN TEMP:  49; 6HR MAX TEMP:  53;

IRONWOOD       CLOUDY    54  30  40 SE10      30.14S
6HR MIN TEMP:  52; 6HR MAX TEMP:  55;

$$

ABBREVIATIONS USED IN REMARKS
   TC - TEMPERATURE IN CELSIUS
  WCI - WIND CHILL INDEX
   HX - HEAT INDEX
  VSB - VISIBILITY



USA.gov is the U.S. government's official web portal to all federal, state and local government web resources and services.